OVO9905 ZWWW-ZWCM

Flight info

Callsign OVO9905
Flight time N/A
Altitude 34100
Route KABDO H64 KEL H63 P44
Aircraft A20N/M-SDE2E3FGHIJ1RWXY/LB1

Departure

Time 2026-04-22 16:41
Airport Ürümqi Tianshan International Airport (ZWWW)

Arrival

Time N/A
Airport Qiemo Yudu Airport (ZWCM)
Time Latitude Longitude Altitude Speed Heading
2026-04-22 16:24 43.91932 87.47244 2135 ft 0 kts 162°
2026-04-22 16:32 43.91947 87.47238 2136 ft 3 kts 162°
2026-04-22 16:32 43.91977 87.47224 2136 ft 3 kts 162°
2026-04-22 16:32 43.91934 87.47244 2135 ft 0 kts 162°
2026-04-22 16:33 43.91935 87.47243 2135 ft 0 kts 162°
2026-04-22 16:33 43.91949 87.47237 2135 ft 2 kts 162°
2026-04-22 16:33 43.91952 87.47236 2133 ft 2 kts 162°
2026-04-22 16:34 43.91967 87.47229 2134 ft 2 kts 162°
2026-04-22 16:34 43.91980 87.47223 2135 ft 0 kts 173°
2026-04-22 16:34 43.91987 87.47222 2135 ft 2 kts 172°
2026-04-22 16:34 43.92002 87.47213 2134 ft 2 kts 128°
2026-04-22 16:35 43.92008 87.47193 2133 ft 2 kts 83°
2026-04-22 16:35 43.92006 87.47179 2133 ft 1 kts 52°
2026-04-22 16:35 43.92009 87.47184 2133 ft 2 kts 52°
2026-04-22 16:35 43.92032 87.47269 2134 ft 20 kts 73°
2026-04-22 16:36 43.92036 87.47284 2133 ft 21 kts 73°
2026-04-22 16:36 43.92083 87.47495 2135 ft 24 kts 73°
2026-04-22 16:36 43.92137 87.47695 2135 ft 17 kts 48°
2026-04-22 16:37 43.92241 87.47697 2134 ft 16 kts 339°
2026-04-22 16:37 43.92326 87.47757 2134 ft 16 kts 73°
2026-04-22 16:37 43.92357 87.47908 2136 ft 17 kts 74°
2026-04-22 16:37 43.92390 87.48070 2136 ft 18 kts 74°
2026-04-22 16:38 43.92427 87.48244 2134 ft 19 kts 73°
2026-04-22 16:38 43.92467 87.48429 2134 ft 21 kts 73°
2026-04-22 16:38 43.92507 87.48596 2135 ft 10 kts 52°
2026-04-22 16:38 43.92569 87.48609 2135 ft 0 kts 350°
2026-04-22 16:39 43.92571 87.48608 2135 ft 0 kts 350°
2026-04-22 16:39 43.92610 87.48593 2136 ft 13 kts 340°
2026-04-22 16:40 43.92652 87.48502 2136 ft 11 kts 243°
2026-04-22 16:40 43.92625 87.48362 2135 ft 31 kts 256°
2026-04-22 16:40 43.92254 87.46616 2135 ft 148 kts 253°
2026-04-22 16:41 43.91952 87.45110 2424 ft 168 kts 255°
2026-04-22 16:41 43.91721 87.43515 3084 ft 169 kts 258°
2026-04-22 16:41 43.91700 87.43349 3151 ft 169 kts 258°
2026-04-22 16:42 43.91656 87.43011 3280 ft 170 kts 257°
2026-04-22 16:42 43.91420 87.41310 3592 ft 191 kts 257°
2026-04-22 16:42 43.91091 87.39372 3834 ft 226 kts 255°
2026-04-22 16:42 43.90650 87.37145 4303 ft 244 kts 253°
2026-04-22 16:43 43.90153 87.34878 5199 ft 247 kts 248°
2026-04-22 16:43 43.89114 87.32986 5930 ft 257 kts 216°
2026-04-22 16:43 43.87561 87.31674 6689 ft 263 kts 208°
2026-04-22 16:43 43.85935 87.30541 7656 ft 260 kts 206°
2026-04-22 16:44 43.84282 87.29482 8478 ft 265 kts 206°
2026-04-22 16:44 43.82574 87.28464 9298 ft 270 kts 204°
2026-04-22 16:44 43.80823 87.27471 10084 ft 274 kts 210°
2026-04-22 16:44 43.79315 87.25828 10585 ft 283 kts 234°
2026-04-22 16:45 43.78437 87.23354 11038 ft 294 kts 260°
2026-04-22 16:45 43.78143 87.20508 11581 ft 305 kts 264°
2026-04-22 16:45 43.77680 87.17549 11972 ft 328 kts 254°
2026-04-22 16:45 43.76754 87.14586 12685 ft 339 kts 244°
2026-04-22 16:46 43.75538 87.11796 13736 ft 340 kts 240°
2026-04-22 16:46 43.74180 87.09095 14512 ft 343 kts 238°
2026-04-22 16:46 43.72746 87.06388 15004 ft 353 kts 237°
2026-04-22 16:46 43.71278 87.03653 15706 ft 356 kts 237°
2026-04-22 16:47 43.69791 87.00892 16378 ft 360 kts 237°
2026-04-22 16:47 43.68261 86.98131 17010 ft 365 kts 234°
2026-04-22 16:47 43.67185 86.96339 17407 ft 365 kts 238°
2026-04-22 16:47 43.65191 86.92501 18186 ft 371 kts 238°
2026-04-22 16:48 43.63670 86.89598 18759 ft 374 kts 238°
2026-04-22 16:48 43.62137 86.86664 19306 ft 379 kts 238°
2026-04-22 16:48 43.60614 86.83733 19804 ft 382 kts 238°
2026-04-22 16:48 43.59046 86.80712 20424 ft 384 kts 238°
2026-04-22 16:49 43.57503 86.77740 20894 ft 388 kts 238°
2026-04-22 16:49 43.55878 86.74741 21401 ft 395 kts 232°
2026-04-22 16:49 43.53765 86.72257 21967 ft 406 kts 216°
2026-04-22 16:49 43.51171 86.70599 22405 ft 418 kts 200°
2026-04-22 16:50 43.48331 86.69656 22974 ft 422 kts 196°
2026-04-22 16:50 43.45443 86.68803 23506 ft 426 kts 195°
2026-04-22 16:50 43.42533 86.67948 23963 ft 429 kts 196°
2026-04-22 16:50 43.39602 86.67075 24426 ft 431 kts 196°
2026-04-22 16:51 43.36660 86.66195 24797 ft 435 kts 196°
2026-04-22 16:51 43.33694 86.65300 25269 ft 437 kts 197°
2026-04-22 16:51 43.30712 86.64393 25689 ft 439 kts 197°
2026-04-22 16:51 43.27723 86.63479 26091 ft 442 kts 197°
2026-04-22 16:52 43.24710 86.62560 26475 ft 445 kts 197°
2026-04-22 16:52 43.21675 86.61634 26847 ft 448 kts 198°
2026-04-22 16:52 43.19664 86.61022 27073 ft 450 kts 198°
2026-04-22 16:52 43.15563 86.59776 27609 ft 453 kts 198°
2026-04-22 16:53 43.12480 86.58837 27969 ft 455 kts 198°
2026-04-22 16:53 43.10422 86.58212 28221 ft 457 kts 198°
2026-04-22 16:53 43.07310 86.57273 28557 ft 459 kts 198°
2026-04-22 16:53 43.04180 86.56331 28821 ft 463 kts 198°
2026-04-22 16:54 43.01020 86.55382 29093 ft 466 kts 198°
2026-04-22 16:54 42.97849 86.54422 29406 ft 468 kts 199°
2026-04-22 16:54 42.94659 86.53456 29578 ft 473 kts 199°
2026-04-22 16:54 42.91433 86.52482 29917 ft 475 kts 199°
2026-04-22 16:55 42.88210 86.51511 30189 ft 477 kts 199°
2026-04-22 16:55 42.84953 86.50532 30433 ft 480 kts 199°
2026-04-22 16:55 42.81687 86.49549 30667 ft 483 kts 199°
2026-04-22 16:55 42.78403 86.48566 30976 ft 483 kts 199°
2026-04-22 16:56 42.75111 86.47583 31166 ft 486 kts 200°
2026-04-22 16:56 42.71809 86.46594 31464 ft 486 kts 200°
2026-04-22 16:56 42.68506 86.45603 31754 ft 487 kts 200°
2026-04-22 16:56 42.65194 86.44612 32098 ft 487 kts 201°
2026-04-22 16:57 42.61886 86.43625 32413 ft 486 kts 201°
2026-04-22 16:57 42.58583 86.42639 32715 ft 486 kts 201°
2026-04-22 16:57 42.55281 86.41661 32955 ft 487 kts 201°
2026-04-22 16:57 42.51970 86.40678 33171 ft 488 kts 202°
2026-04-22 16:58 42.48654 86.39689 33455 ft 488 kts 202°
2026-04-22 16:58 42.45335 86.38705 33681 ft 489 kts 202°
2026-04-22 16:58 42.42002 86.37719 33923 ft 490 kts 202°
2026-04-22 16:59 42.35351 86.35758 34000 ft 488 kts 202°
2026-04-22 16:59 42.28696 86.33788 33989 ft 491 kts 202°
2026-04-22 17:00 42.22099 86.31843 33978 ft 490 kts 203°
2026-04-22 17:00 42.12119 86.28907 33960 ft 490 kts 203°
2026-04-22 17:01 42.05446 86.26954 33974 ft 492 kts 203°
2026-04-22 17:01 41.98751 86.24983 33977 ft 493 kts 203°
2026-04-22 17:02 41.92066 86.23035 33947 ft 491 kts 203°
2026-04-22 17:02 41.85429 86.21098 33963 ft 492 kts 203°
2026-04-22 17:03 41.78734 86.19181 33957 ft 492 kts 202°
2026-04-22 17:03 41.72069 86.17239 33942 ft 488 kts 203°
2026-04-22 17:04 41.65469 86.15312 33937 ft 484 kts 203°
2026-04-22 17:04 41.58778 86.13768 33945 ft 498 kts 194°
2026-04-22 17:05 41.51835 86.13138 33943 ft 500 kts 193°
2026-04-22 17:05 41.44905 86.12506 33942 ft 499 kts 193°
2026-04-22 17:06 41.37974 86.11863 33943 ft 499 kts 193°
2026-04-22 17:06 41.31044 86.11219 33943 ft 499 kts 193°
2026-04-22 17:07 41.24126 86.10577 33943 ft 498 kts 193°
2026-04-22 17:07 41.17212 86.09938 33940 ft 498 kts 193°
2026-04-22 17:08 41.10294 86.09328 33893 ft 501 kts 191°
2026-04-22 17:08 41.03371 86.08740 33934 ft 497 kts 194°
2026-04-22 17:09 40.96479 86.08050 33935 ft 497 kts 193°
2026-04-22 17:09 40.89627 86.07404 33933 ft 497 kts 193°
2026-04-22 17:10 40.82731 86.06770 33931 ft 496 kts 192°
2026-04-22 17:10 40.75842 86.06141 33929 ft 496 kts 192°
2026-04-22 17:11 40.68952 86.05515 33925 ft 496 kts 192°
2026-04-22 17:11 40.62070 86.04891 33910 ft 496 kts 192°
2026-04-22 17:12 40.55186 86.04267 33921 ft 496 kts 192°
2026-04-22 17:12 40.48295 86.03644 33923 ft 496 kts 192°
2026-04-22 17:13 40.41407 86.03020 33922 ft 496 kts 192°
2026-04-22 17:13 40.37959 86.02709 33796 ft 496 kts 191°
2026-04-22 17:13 40.34521 86.02400 33523 ft 495 kts 191°
2026-04-22 17:14 40.31093 86.02093 33265 ft 494 kts 191°
2026-04-22 17:14 40.27672 86.01785 33011 ft 493 kts 191°
2026-04-22 17:14 40.24247 86.01477 32743 ft 493 kts 191°
2026-04-22 17:14 40.20833 86.01171 32481 ft 493 kts 191°
2026-04-22 17:15 40.18562 86.00967 32312 ft 492 kts 191°
2026-04-22 17:15 40.13988 86.00558 31962 ft 492 kts 191°
2026-04-22 17:15 40.10578 86.00253 31711 ft 491 kts 191°
2026-04-22 17:15 40.07181 85.99857 31461 ft 486 kts 195°
2026-04-22 17:16 40.03873 85.99075 31221 ft 483 kts 198°
2026-04-22 17:16 40.00578 85.98246 30973 ft 483 kts 198°
2026-04-22 17:16 39.97273 85.97422 30729 ft 482 kts 198°
2026-04-22 17:16 39.93978 85.96602 30459 ft 481 kts 198°
2026-04-22 17:17 39.90699 85.95789 30225 ft 478 kts 198°
2026-04-22 17:17 39.87448 85.94987 29983 ft 475 kts 198°
2026-04-22 17:17 39.84205 85.94187 29719 ft 472 kts 197°
2026-04-22 17:17 39.80977 85.93391 29443 ft 471 kts 197°
2026-04-22 17:18 39.77772 85.92601 29175 ft 469 kts 197°
2026-04-22 17:18 39.74574 85.91813 28903 ft 467 kts 197°
2026-04-22 17:18 39.71425 85.91038 28425 ft 466 kts 197°
2026-04-22 17:18 39.68247 85.90257 27892 ft 463 kts 197°
2026-04-22 17:19 39.61985 85.88724 26831 ft 453 kts 197°
2026-04-22 17:19 39.55862 85.87225 25782 ft 444 kts 197°
2026-04-22 17:20 39.49847 85.85753 24731 ft 436 kts 196°
2026-04-22 17:20 39.43944 85.84312 23712 ft 429 kts 196°
2026-04-22 17:21 39.41009 85.83596 23188 ft 425 kts 196°
2026-04-22 17:21 39.35271 85.82202 22167 ft 415 kts 196°
2026-04-22 17:22 39.29659 85.80842 21203 ft 405 kts 196°
2026-04-22 17:22 39.26901 85.80179 20654 ft 402 kts 196°
2026-04-22 17:22 39.21480 85.78860 19743 ft 392 kts 196°
2026-04-22 17:23 39.18812 85.78211 19263 ft 389 kts 196°
2026-04-22 17:23 39.13539 85.76933 18305 ft 382 kts 196°
2026-04-22 17:23 39.10929 85.76302 17811 ft 379 kts 196°
2026-04-22 17:24 39.08355 85.75680 17352 ft 374 kts 195°
2026-04-22 17:24 39.05813 85.75067 16892 ft 370 kts 195°
2026-04-22 17:24 39.03303 85.74462 16434 ft 365 kts 195°
2026-04-22 17:24 39.00819 85.73864 15993 ft 361 kts 195°
2026-04-22 17:25 38.98354 85.73271 15547 ft 358 kts 195°
2026-04-22 17:25 38.95910 85.72682 15099 ft 355 kts 195°
2026-04-22 17:25 38.93497 85.72101 14673 ft 352 kts 195°
2026-04-22 17:25 38.91102 85.71526 14248 ft 349 kts 194°
2026-04-22 17:26 38.88726 85.70955 13815 ft 346 kts 194°
2026-04-22 17:26 38.86367 85.70389 13365 ft 344 kts 194°
2026-04-22 17:26 38.84060 85.69836 12948 ft 340 kts 194°
2026-04-22 17:26 38.81720 85.69275 12530 ft 336 kts 194°
2026-04-22 17:27 38.80201 85.68912 12258 ft 334 kts 193°
2026-04-22 17:27 38.77194 85.68192 11712 ft 330 kts 193°
2026-04-22 17:27 38.74943 85.67654 11316 ft 331 kts 193°
2026-04-22 17:27 38.72573 85.67082 10885 ft 360 kts 193°
2026-04-22 17:28 38.70076 85.66481 10571 ft 369 kts 193°
2026-04-22 17:28 38.67608 85.65736 10319 ft 360 kts 198°
2026-04-22 17:28 38.65258 85.64778 10054 ft 349 kts 200°
2026-04-22 17:28 38.62996 85.63781 9807 ft 340 kts 202°
2026-04-22 17:29 38.60808 85.62761 9597 ft 329 kts 201°
2026-04-22 17:29 38.58700 85.61778 9514 ft 314 kts 201°
2026-04-22 17:29 38.56699 85.60844 9439 ft 300 kts 201°
2026-04-22 17:29 38.54764 85.59942 9363 ft 295 kts 201°
2026-04-22 17:30 38.52816 85.59034 9216 ft 299 kts 201°
2026-04-22 17:30 38.50886 85.58134 9067 ft 292 kts 201°
2026-04-22 17:30 38.49003 85.57258 8916 ft 283 kts 201°
2026-04-22 17:30 38.47184 85.56412 8794 ft 273 kts 201°
2026-04-22 17:31 38.45427 85.55595 8640 ft 263 kts 201°
2026-04-22 17:31 38.43735 85.54807 8509 ft 258 kts 201°
2026-04-22 17:31 38.42035 85.54015 8391 ft 262 kts 200°
2026-04-22 17:31 38.40331 85.53223 8272 ft 260 kts 200°
2026-04-22 17:32 38.38635 85.52434 8146 ft 260 kts 200°
2026-04-22 17:32 38.36940 85.51646 8023 ft 259 kts 200°
2026-04-22 17:32 38.35246 85.50858 7923 ft 259 kts 200°
2026-04-22 17:32 38.33577 85.50083 7897 ft 250 kts 200°
2026-04-22 17:33 38.32511 85.49588 7898 ft 244 kts 200°
2026-04-22 17:33 38.30362 85.48591 7898 ft 247 kts 200°
2026-04-22 17:33 38.28753 85.47845 7898 ft 246 kts 200°
2026-04-22 17:33 38.27143 85.47098 7898 ft 246 kts 200°
2026-04-22 17:34 38.25543 85.46300 7897 ft 246 kts 210°
2026-04-22 17:34 38.24311 85.44835 7902 ft 246 kts 240°
2026-04-22 17:34 38.23694 85.42822 7900 ft 247 kts 252°
2026-04-22 17:34 38.23163 85.40737 7899 ft 248 kts 252°
2026-04-22 17:35 38.22628 85.38643 7903 ft 249 kts 253°
2026-04-22 17:35 38.22094 85.36547 7901 ft 247 kts 252°
2026-04-22 17:35 38.21564 85.34471 7902 ft 248 kts 253°
2026-04-22 17:35 38.21030 85.32377 7903 ft 248 kts 253°
2026-04-22 17:36 38.20499 85.30295 7902 ft 248 kts 253°
2026-04-22 17:36 38.19965 85.28201 7901 ft 249 kts 252°
2026-04-22 17:36 38.19434 85.26118 7893 ft 246 kts 252°
2026-04-22 17:36 38.18649 85.24199 7688 ft 248 kts 227°
2026-04-22 17:37 38.17238 85.22997 7389 ft 245 kts 196°
2026-04-22 17:37 38.15564 85.22852 6984 ft 243 kts 164°
2026-04-22 17:37 38.14093 85.23803 6649 ft 236 kts 133°
2026-04-22 17:37 38.13269 85.25534 6397 ft 228 kts 101°
2026-04-22 17:38 38.13306 85.27503 6098 ft 224 kts 70°
2026-04-22 17:38 38.13958 85.29283 5854 ft 219 kts 66°
2026-04-22 17:38 38.14489 85.31100 5904 ft 224 kts 72°
2026-04-22 17:38 38.14971 85.32975 5903 ft 223 kts 72°
2026-04-22 17:39 38.15291 85.34215 5904 ft 223 kts 72°
2026-04-22 17:39 38.15453 85.34848 5904 ft 223 kts 72°